This demonstration page uses our WeatherBlox Daily Observations layout. Learn more.

Hourly Observations for June 11, 2017

Temp ( °F °C ) Dew Point ( °F °C ) Humidity (%) Winds ( mph kmh ) Pressure ( in mb ) Visibility ( mi km ) Precip ( " mm )
12:54 am 00:54 Clear 79 26.1 69 20.6 72 72 S 15 24 29.64 1004 10 16.0934 0 0
1:54 am 01:54 Clear 78 25.6 68 20 71 71 S 17 28 29.63 1004 10 16.0934 0 0
2:54 am 02:54 Clear 77 25 67 19.4 71 71 S 15 24 29.62 1003 10 16.0934 0 0
3:54 am 03:54 Clear 76 24.4 67 19.4 74 74 S 17 28 29.6 1003 10 16.0934 0 0
4:54 am 04:54 Clear 75 23.9 66 18.9 74 74 S 20 31 29.6 1002 10 16.0934 0 0
5:54 am 05:54 Clear 74 23.3 65 18.3 74 74 S 18 30 29.59 1002 10 16.0934 0 0
6:54 am 06:54 Sunny 74 23.3 66 18.9 76 76 S 20 31 29.61 1003 10 16.0934 0 0
7:54 am 07:54 Sunny 76 24.4 66 18.9 72 72 S 20 31 29.61 1003 10 16.0934 0 0
8:54 am 08:54 Sunny 79 26.1 66 18.9 65 65 S 22 35 29.62 1003 10 16.0934 0 0
9:54 am 09:54 Sunny 82 27.8 67 19.4 60 60 S 24 39 29.63 1003 10 16.0934 0 0
10:54 am 10:54 Sunny 85 29.4 67 19.4 55 55 S 21 33 29.62 1003 10 16.0934 0 0
11:54 am 11:54 Mostly Sunny 88 31.1 67 19.4 50 50 S 22 35 29.63 1003 10 16.0934 0 0
12:54 pm 12:54 Mostly Sunny 91 32.8 68 20 47 47 S 25 41 29.62 1003 10 16.0934 0 0
1:54 pm 13:54 Mostly Sunny 93 33.9 68 20 44 44 S 25 41 29.61 1003 10 16.0934 0 0
2:54 pm 14:54 Sunny 95 35 67 19.4 40 40 S 29 46 29.6 1002 10 16.0934 0 0
3:54 pm 15:54 Sunny 96 35.6 67 19.4 39 39 S 21 33 29.61 1003 10 16.0934 0 0
4:54 pm 16:54 Mostly Sunny 95 35 67 19.4 40 40 S 21 33 29.6 1003 10 16.0934 0 0
5:54 pm 17:54 Mostly Sunny 94 34.4 68 20 43 43 S 17 28 29.61 1003 10 16.0934 0 0
6:54 pm 18:54 Mostly Cloudy 92 33.3 68 20 46 46 S 17 28 29.62 1003 10 16.0934 0 0
7:54 pm 19:54 Mostly Cloudy 90 32.2 66 18.9 45 45 S 20 31 29.63 1003 10 16.0934 0 0
8:54 pm 20:54 Sunny 88 31.1 65 18.3 46 46 S 22 35 29.65 1004 10 16.0934 0 0
9:54 pm 21:54 Clear 85 29.4 67 19.4 55 55 SSE 14 22 29.68 1005 10 16.0934 0 0
10:54 pm 22:54 Clear 83 28.3 68 20 61 61 S 15 24 29.71 1006 10 16.0934 0 0
11:54 pm 23:54 Clear 81 27.2 69 20.6 67 67 S 15 24 29.72 1006 10 16.0934 0 0

Powered by AerisWeather